Find Starlink 32861

NORAD ID: 62870 Int'l Des: 2025-022 Owner: SPXS Country: US Constellation: starlink operational
LEOCIRCULAR

Live-Position

3D-Globus wird geladen...

Über Starlink 32861

Beschreibung wird geladen...

Nächste Überflüge

Passes for default location (London). Set your location on the main map for personalized predictions.

Höhenverlauf

Loading altitude history...

Zweizeiliger Elementsatz

1 62870U 25022S 26124.57114216 .00011791 00000-0 35973-3 0 9995
2 62870 53.1602 229.4959 0001084 66.1530 293.9586 15.34384489 70464
Epoch: 4. Mai 2026 • Age: 17 hours

Aktueller Status

Höhe 466.7 km
Geschwindigkeit 7.64 km/s
Subsatellitenpunkt 45.22°N, 56.02°W
Startdatum 2. Feb. 2025
Alter 1.2 years
Typ internet

Technische Details

Klassifizierung Payload
Masse 730.00 kg
Trockenmasse 700.00 kg
Gesamtmasse 730.00 kg
Länge 0.30 m
Durchmesser 4.10 m
Spannweite 29.00 m
Form Box + pan
Hersteller SPXS
Bus-Typ Starlink V2M
Phasenstatus In Orbit
Besitzer/Staat SPXS/US

Most Searched